Hourly Data Report for August 09, 2021

KUGLUKTUK A
NUNAVUT
Current Station Operator: NAVCAN

67°49'00.000" N
115°08'38.000" W
22.60 m
2300903
71938
YCO

Download Data

Hourly Data (August 2021)
Hourly Data Report for August 9, 2021
TIME
LST
Temp Definition
°C
Dew Point Definition
°C
Rel Hum Definition
%
Precip. Amount Definition
mm

Wind Dir Definition
10's deg

Wind Spd Definition
km/h
Visibility Definition
km
Stn Press Definition
kPa
Hmdx Definition


Wind Chill Definition


Weather Definition


00:00 5.4 1.8 78   8 6 24.1 100.07     LegendNANA
01:00 4.6 2.8 88   14 9 24.1 100.03     LegendNANA
02:00 4.6 2.8 88   17 9 24.1 99.98     Cloudy
03:00 4.4 2.7 89   21 14 24.1 99.93     LegendNANA
04:00 5.3 3.6 88   23 14 24.1 99.88     LegendNANA
05:00 5.1 3.6 90   22 16 24.1 99.81     Cloudy
06:00 6.1 3.8 85   23 14 24.1 99.74     LegendNANA
07:00 7.2 4.3 82   22 13 24.1 99.68     Rain
08:00 8.8 3.1 68   21 20 24.1 99.59     Cloudy
09:00 9.7 2.8 62   21 14 24.1 99.51     LegendNANA
10:00 10.2 2.0 57   22 14 24.1 99.46     LegendNANA
11:00 10.6 0.8 50   24 9 24.1 99.39     Cloudy
12:00 10.8 1.0 50   26 14 24.1 99.33     LegendNANA
13:00 10.8 1.6 53   3 6 24.1 99.28     LegendNANA
14:00 10.9 2.0 54   1 9 24.1 99.25     Cloudy
15:00 10.7 2.5 57   2 8 24.1 99.26     LegendNANA
16:00 10.3 4.3 66   5 12 24.1 99.27     LegendNANA
17:00 10.5 3.9 63   2 8 24.1 99.28     Mostly Cloudy
18:00 11.2 2.7 56   35 4 24.1 99.29     LegendNANA
19:00 10.3 3.5 63   36 8 24.1 99.33     LegendNANA
20:00 9.6 4.0 68   2 13 24.1 99.36     Mostly Cloudy
21:00 7.8 5.1 83   4 14 24.1 99.40     LegendNANA
22:00 6.6 4.3 85   1 11 24.1 99.45     LegendNANA
23:00 5.2 3.8 91   30 7 24.1 99.51     Mainly Clear

Notes on Data Quality.

Legend

  • E = Estimated
  • M = Missing
  • NA = Not Available*
  • [empty] = Indicates an unobserved value
Date modified: